Time,TemperatureF,DewpointF,PressureIn,WindDirection,WindDirectionDegrees,WindSpeedMPH,WindSpeedGustMPH,Humidity,HourlyPrecipIn,Conditions,Clouds,dailyrainin,SoftwareType,DateUTC
2013-02-22 00:00:00,40.9,24.5,29.80,ESE,113,3.4,4.0,52,0.00,,,0.00,WUHU216HW,2013-02-22 07:00:00,
2013-02-22 00:05:00,40.7,24.3,29.80,SE,135,2.5,4.0,52,0.00,,,0.00,WUHU216HW,2013-02-22 07:05:00,
2013-02-22 00:10:00,40.7,24.3,29.80,East,90,0.4,2.9,52,0.00,,,0.00,WUHU216HW,2013-02-22 07:10:00,
2013-02-22 00:15:00,40.7,24.3,29.80,ESE,113,2.9,2.9,52,0.00,,,0.00,WUHU216HW,2013-02-22 07:15:00,
2013-02-22 00:20:00,40.7,24.3,29.80,ESE,113,2.2,2.9,52,0.00,,,0.00,WUHU216HW,2013-02-22 07:20:00,
2013-02-22 00:25:00,40.7,24.3,29.80,East,90,1.1,2.2,52,0.00,,,0.00,WUHU216HW,2013-02-22 07:25:00,
2013-02-22 00:30:00,40.7,24.3,29.80,ESE,113,1.8,1.8,52,0.00,,,0.00,WUHU216HW,2013-02-22 07:30:00,
2013-02-22 00:35:00,40.5,24.6,29.80,SE,135,1.8,1.8,53,0.00,,,0.00,WUHU216HW,2013-02-22 07:35:00,
2013-02-22 00:40:00,40.1,24.3,29.80,ESE,113,2.5,3.4,53,0.00,,,0.00,WUHU216HW,2013-02-22 07:40:00,
2013-02-22 00:45:00,40.0,24.1,29.80,ESE,113,0.9,3.4,53,0.00,,,0.00,WUHU216HW,2013-02-22 07:45:00,
2013-02-22 00:50:00,40.0,24.1,29.80,SE,135,0.2,2.7,53,0.00,,,0.00,WUHU216HW,2013-02-22 07:50:00,
2013-02-22 00:55:00,40.0,24.6,29.80,SE,135,0.0,0.4,54,0.00,,,0.00,WUHU216HW,2013-02-22 07:55:00,
2013-02-22 01:00:00,40.0,24.6,29.80,SE,135,0.4,1.1,54,0.00,,,0.00,WUHU216HW,2013-02-22 08:00:00,
2013-02-22 01:05:00,40.0,24.6,29.80,SE,135,1.8,1.8,54,0.00,,,0.00,WUHU216HW,2013-02-22 08:05:00,
2013-02-22 01:10:00,40.0,24.6,29.80,SE,135,1.6,2.9,54,0.00,,,0.00,WUHU216HW,2013-02-22 08:10:00,
2013-02-22 01:15:00,39.8,24.4,29.80,SE,135,0.0,2.9,54,0.00,,,0.00,WUHU216HW,2013-02-22 08:15:00,
2013-02-22 01:20:00,39.6,24.2,29.80,ESE,113,1.8,2.2,54,0.00,,,0.00,WUHU216HW,2013-02-22 08:20:00,
2013-02-22 01:25:00,39.4,24.0,29.80,ESE,113,2.0,3.1,54,0.00,,,0.00,WUHU216HW,2013-02-22 08:25:00,
2013-02-22 01:30:00,39.2,24.3,29.80,ESE,113,0.9,3.1,55,0.00,,,0.00,WUHU216HW,2013-02-22 08:30:00,
2013-02-22 01:35:00,39.2,24.3,29.80,SE,135,0.4,1.8,55,0.00,,,0.00,WUHU216HW,2013-02-22 08:35:00,
2013-02-22 01:40:00,39.2,24.3,29.80,SE,135,0.0,0.9,55,0.00,,,0.00,WUHU216HW,2013-02-22 08:40:00,
2013-02-22 01:45:00,39.2,24.3,29.80,SE,135,0.9,0.9,55,0.00,,,0.00,WUHU216HW,2013-02-22 08:45:00,
2013-02-22 01:50:00,39.2,24.3,29.80,SE,135,0.2,0.9,55,0.00,,,0.00,WUHU216HW,2013-02-22 08:50:00,
2013-02-22 01:55:00,39.1,24.1,29.80,SE,135,0.0,0.9,55,0.00,,,0.00,WUHU216HW,2013-02-22 08:55:00,
2013-02-22 02:00:00,39.1,24.6,29.79,SE,135,0.4,0.4,56,0.00,,,0.00,WUHU216HW,2013-02-22 09:00:00,
2013-02-22 02:05:00,39.2,24.8,29.79,SSE,158,1.1,1.1,56,0.00,,,0.00,WUHU216HW,2013-02-22 09:05:00,
2013-02-22 02:10:00,39.4,24.5,29.79,SE,135,1.8,1.8,55,0.00,,,0.00,WUHU216HW,2013-02-22 09:10:00,
2013-02-22 02:15:00,39.6,24.7,29.79,SSW,203,2.5,2.5,55,0.00,,,0.00,WUHU216HW,2013-02-22 09:15:00,
2013-02-22 02:20:00,39.6,24.7,29.79,SSW,203,1.3,2.5,55,0.00,,,0.00,WUHU216HW,2013-02-22 09:20:00,
2013-02-22 02:25:00,39.8,24.9,29.79,South,180,1.8,2.5,55,0.00,,,0.00,WUHU216HW,2013-02-22 09:25:00,
2013-02-22 02:30:00,39.6,24.7,29.79,SSW,203,2.0,3.1,55,0.00,,,0.00,WUHU216HW,2013-02-22 09:30:00,
2013-02-22 02:35:00,39.6,24.7,29.79,SSW,203,1.3,3.1,55,0.00,,,0.00,WUHU216HW,2013-02-22 09:35:00,
2013-02-22 02:40:00,39.4,24.5,29.79,SW,225,2.7,2.7,55,0.00,,,0.00,WUHU216HW,2013-02-22 09:40:00,
2013-02-22 02:45:00,39.2,24.3,29.79,South,180,2.7,2.7,55,0.00,,,0.00,WUHU216HW,2013-02-22 09:45:00,
2013-02-22 02:50:00,39.2,24.8,29.79,SW,225,2.5,2.9,56,0.00,,,0.00,WUHU216HW,2013-02-22 09:50:00,
2013-02-22 02:55:00,39.2,24.3,29.79,SSW,203,2.0,2.9,55,0.00,,,0.00,WUHU216HW,2013-02-22 09:55:00,
2013-02-22 03:00:00,39.2,24.8,29.79,SSW,203,3.1,3.4,56,0.00,,,0.00,WUHU216HW,2013-02-22 10:00:00,
2013-02-22 03:05:00,39.2,24.8,29.79,SSW,203,2.9,3.4,56,0.00,,,0.00,WUHU216HW,2013-02-22 10:05:00,
2013-02-22 03:10:00,39.1,24.6,29.79,SSW,203,3.4,3.4,56,0.00,,,0.00,WUHU216HW,2013-02-22 10:10:00,
2013-02-22 03:15:00,38.9,24.4,29.79,SW,225,3.4,3.4,56,0.00,,,0.00,WUHU216HW,2013-02-22 10:15:00,
2013-02-22 03:20:00,38.9,24.4,29.79,SE,135,3.1,3.6,56,0.00,,,0.00,WUHU216HW,2013-02-22 10:20:00,
2013-02-22 03:25:00,38.7,24.2,29.79,SSW,203,3.1,3.6,56,0.00,,,0.00,WUHU216HW,2013-02-22 10:25:00,
2013-02-22 03:30:00,38.9,24.4,29.79,SSW,203,2.9,3.6,56,0.00,,,0.00,WUHU216HW,2013-02-22 10:30:00,
2013-02-22 03:35:00,38.9,24.8,29.79,SSW,203,2.7,3.4,57,0.00,,,0.00,WUHU216HW,2013-02-22 10:35:00,
2013-02-22 03:40:00,38.7,24.7,29.79,SSE,158,3.8,3.8,57,0.00,,,0.00,WUHU216HW,2013-02-22 10:40:00,
2013-02-22 03:45:00,38.9,24.8,29.79,South,180,3.6,3.8,57,0.00,,,0.00,WUHU216HW,2013-02-22 10:45:00,
2013-02-22 03:50:00,38.7,24.7,29.79,South,180,3.4,3.8,57,0.00,,,0.00,WUHU216HW,2013-02-22 10:50:00,
2013-02-22 03:55:00,38.9,24.4,29.79,SSW,203,2.5,4.5,56,0.00,,,0.00,WUHU216HW,2013-02-22 10:55:00,
2013-02-22 04:00:00,38.7,24.7,29.79,SSW,203,4.3,4.5,57,0.00,,,0.00,WUHU216HW,2013-02-22 11:00:00,
2013-02-22 04:05:00,38.7,24.7,29.80,SW,225,4.5,4.5,57,0.00,,,0.00,WUHU216HW,2013-02-22 11:05:00,
2013-02-22 04:10:00,38.5,24.5,29.79,SSW,203,4.7,4.7,57,0.00,,,0.00,WUHU216HW,2013-02-22 11:10:00,
2013-02-22 04:15:00,38.5,24.5,29.80,South,180,4.0,5.1,57,0.00,,,0.00,WUHU216HW,2013-02-22 11:15:00,
2013-02-22 04:20:00,38.5,24.5,29.80,SW,225,1.3,5.4,57,0.00,,,0.00,WUHU216HW,2013-02-22 11:20:00,
2013-02-22 04:25:00,38.3,24.8,29.80,SSE,158,4.3,5.4,58,0.00,,,0.00,WUHU216HW,2013-02-22 11:25:00,
2013-02-22 04:30:00,38.3,24.8,29.80,SSW,203,4.3,5.4,58,0.00,,,0.00,WUHU216HW,2013-02-22 11:30:00,
2013-02-22 04:35:00,38.3,24.8,29.80,SW,225,4.7,5.4,58,0.00,,,0.00,WUHU216HW,2013-02-22 11:35:00,
2013-02-22 04:40:00,38.3,24.8,29.80,SSW,203,4.7,5.4,58,0.00,,,0.00,WUHU216HW,2013-02-22 11:40:00,
2013-02-22 04:45:00,38.2,24.2,29.80,SSW,203,3.4,5.4,57,0.00,,,0.00,WUHU216HW,2013-02-22 11:45:00,
2013-02-22 04:50:00,38.2,24.7,29.80,SW,225,4.7,4.9,58,0.00,,,0.00,WUHU216HW,2013-02-22 11:50:00,
2013-02-22 04:55:00,38.2,24.7,29.81,SSW,203,4.7,5.4,58,0.00,,,0.00,WUHU216HW,2013-02-22 11:55:00,
2013-02-22 05:00:00,38.2,25.0,29.81,South,180,4.3,6.3,59,0.00,,,0.00,WUHU216HW,2013-02-22 12:00:00,
2013-02-22 05:05:00,38.0,24.9,29.81,SSE,158,4.9,6.3,59,0.00,,,0.00,WUHU216HW,2013-02-22 12:05:00,
2013-02-22 05:10:00,37.8,24.8,29.81,SE,135,3.1,5.4,59,0.00,,,0.00,WUHU216HW,2013-02-22 12:10:00,
2013-02-22 05:15:00,37.8,24.8,29.82,SSE,158,4.7,4.9,59,0.00,,,0.00,WUHU216HW,2013-02-22 12:15:00,
2013-02-22 05:20:00,37.8,25.2,29.82,SE,135,6.0,6.0,60,0.00,,,0.00,WUHU216HW,2013-02-22 12:20:00,
2013-02-22 05:25:00,37.8,24.8,29.82,SE,135,4.0,6.0,59,0.00,,,0.00,WUHU216HW,2013-02-22 12:25:00,
2013-02-22 05:30:00,37.8,25.2,29.82,SE,135,4.0,4.3,60,0.00,,,0.00,WUHU216HW,2013-02-22 12:30:00,
2013-02-22 05:35:00,37.8,25.2,29.82,SSE,158,4.3,5.4,60,0.00,,,0.00,WUHU216HW,2013-02-22 12:35:00,
2013-02-22 05:40:00,37.6,25.0,29.82,South,180,3.4,5.4,60,0.00,,,0.00,WUHU216HW,2013-02-22 12:40:00,
2013-02-22 05:45:00,37.4,24.8,29.83,SSW,203,2.5,5.4,60,0.00,,,0.00,WUHU216HW,2013-02-22 12:45:00,
2013-02-22 05:50:00,37.3,24.7,29.83,SE,135,3.1,4.5,60,0.00,,,0.00,WUHU216HW,2013-02-22 12:50:00,
2013-02-22 05:55:00,37.1,24.5,29.83,SSW,203,4.7,6.7,60,0.00,,,0.00,WUHU216HW,2013-02-22 12:55:00,
2013-02-22 06:00:00,37.1,24.9,29.83,SE,135,2.5,6.9,61,0.00,,,0.00,WUHU216HW,2013-02-22 13:00:00,
2013-02-22 06:05:00,36.9,24.8,29.83,South,180,5.4,6.9,61,0.00,,,0.00,WUHU216HW,2013-02-22 13:05:00,
2013-02-22 06:10:00,36.9,24.8,29.83,SE,135,3.4,5.4,61,0.00,,,0.00,WUHU216HW,2013-02-22 13:10:00,
2013-02-22 06:15:00,36.9,25.1,29.83,SE,135,5.4,5.8,62,0.00,,,0.00,WUHU216HW,2013-02-22 13:15:00,
2013-02-22 06:20:00,36.9,25.1,29.83,SSE,158,5.6,5.8,62,0.00,,,0.00,WUHU216HW,2013-02-22 13:20:00,
2013-02-22 06:25:00,36.7,24.9,29.84,SSE,158,4.9,5.8,62,0.00,,,0.00,WUHU216HW,2013-02-22 13:25:00,
2013-02-22 06:30:00,36.7,24.9,29.84,SE,135,4.3,5.8,62,0.00,,,0.00,WUHU216HW,2013-02-22 13:30:00,
2013-02-22 06:35:00,36.5,24.8,29.84,SSE,158,2.7,5.6,62,0.00,,,0.00,WUHU216HW,2013-02-22 13:35:00,
2013-02-22 06:40:00,36.5,24.8,29.84,SE,135,3.4,6.5,62,0.00,,,0.00,WUHU216HW,2013-02-22 13:40:00,
2013-02-22 06:45:00,36.4,24.6,29.84,SSE,158,3.4,6.5,62,0.00,,,0.00,WUHU216HW,2013-02-22 13:45:00,
2013-02-22 06:50:00,36.4,24.6,29.84,SSW,203,3.8,6.7,62,0.00,,,0.00,WUHU216HW,2013-02-22 13:50:00,
2013-02-22 06:55:00,36.5,24.8,29.84,SSW,203,3.8,6.7,62,0.00,,,0.00,WUHU216HW,2013-02-22 13:55:00,
2013-02-22 07:00:00,36.5,24.8,29.84,SSE,158,3.8,5.6,62,0.00,,,0.00,WUHU216HW,2013-02-22 14:00:00,
2013-02-22 07:05:00,36.7,24.9,29.85,SSW,203,4.0,5.6,62,0.00,,,0.00,WUHU216HW,2013-02-22 14:05:00,
2013-02-22 07:10:00,36.9,24.8,29.85,SSE,158,2.5,4.5,61,0.00,,,0.00,WUHU216HW,2013-02-22 14:10:00,
2013-02-22 07:15:00,37.1,25.3,29.85,SSW,203,3.6,4.5,62,0.00,,,0.00,WUHU216HW,2013-02-22 14:15:00,
2013-02-22 07:20:00,37.3,25.0,29.85,SSW,203,3.8,4.5,61,0.00,,,0.00,WUHU216HW,2013-02-22 14:20:00,
2013-02-22 07:25:00,37.4,25.2,29.86,SSW,203,4.0,4.0,61,0.00,,,0.00,WUHU216HW,2013-02-22 14:25:00,
2013-02-22 07:30:00,37.6,25.4,29.86,South,180,4.7,4.7,61,0.00,,,0.00,WUHU216HW,2013-02-22 14:30:00,
2013-02-22 07:35:00,38.0,26.1,29.86,SE,135,4.0,4.7,62,0.00,,,0.00,WUHU216HW,2013-02-22 14:35:00,
2013-02-22 07:40:00,38.2,25.8,29.86,SSW,203,2.5,4.0,61,0.00,,,0.00,WUHU216HW,2013-02-22 14:40:00,
2013-02-22 07:45:00,38.5,25.8,29.87,SW,225,2.5,5.1,60,0.00,,,0.00,WUHU216HW,2013-02-22 14:45:00,
2013-02-22 07:50:00,38.9,26.1,29.87,WSW,248,3.6,5.1,60,0.00,,,0.00,WUHU216HW,2013-02-22 14:50:00,
2013-02-22 07:55:00,39.2,26.5,29.87,WSW,248,2.0,4.7,60,0.00,,,0.00,WUHU216HW,2013-02-22 14:55:00,
2013-02-22 08:00:00,39.8,26.6,29.88,SSW,203,2.2,3.8,59,0.00,,,0.00,WUHU216HW,2013-02-22 15:00:00,
2013-02-22 08:05:00,40.3,27.1,29.88,WSW,248,3.4,3.8,59,0.00,,,0.00,WUHU216HW,2013-02-22 15:05:00,
2013-02-22 08:10:00,40.9,27.2,29.88,West,270,0.2,3.4,58,0.00,,,0.00,WUHU216HW,2013-02-22 15:10:00,
2013-02-22 08:15:00,41.4,27.3,29.89,ENE,68,0.4,2.5,57,0.00,,,0.00,WUHU216HW,2013-02-22 15:15:00,
2013-02-22 08:20:00,42.1,27.5,29.89,SW,225,0.9,2.2,56,0.00,,,0.00,WUHU216HW,2013-02-22 15:20:00,
2013-02-22 08:25:00,43.9,28.3,29.89,SSW,203,2.9,2.9,54,0.00,,,0.00,WUHU216HW,2013-02-22 15:25:00,
2013-02-22 08:30:00,45.5,28.9,29.89,WSW,248,4.0,4.0,52,0.00,,,0.00,WUHU216HW,2013-02-22 15:30:00,
2013-02-22 08:35:00,46.8,29.2,29.89,West,270,1.3,4.0,50,0.00,,,0.00,WUHU216HW,2013-02-22 15:35:00,
2013-02-22 08:40:00,47.7,28.9,29.89,WSW,248,3.8,4.3,48,0.00,,,0.00,WUHU216HW,2013-02-22 15:40:00,
2013-02-22 08:45:00,48.2,28.8,29.89,WSW,248,5.4,5.4,47,0.00,,,0.00,WUHU216HW,2013-02-22 15:45:00,
2013-02-22 08:50:00,48.6,28.6,29.90,WSW,248,5.1,6.9,46,0.00,,,0.00,WUHU216HW,2013-02-22 15:50:00,
2013-02-22 08:55:00,48.6,28.1,29.89,WSW,248,6.3,6.9,45,0.00,,,0.00,WUHU216HW,2013-02-22 15:55:00,
2013-02-22 09:00:00,48.8,28.3,29.89,WSW,248,6.3,7.4,45,0.00,,,0.00,WUHU216HW,2013-02-22 16:00:00,
2013-02-22 09:05:00,49.0,27.9,29.90,WSW,248,5.8,7.6,44,0.00,,,0.00,WUHU216HW,2013-02-22 16:05:00,
2013-02-22 09:10:00,49.1,28.0,29.90,WSW,248,4.7,7.6,44,0.00,,,0.00,WUHU216HW,2013-02-22 16:10:00,
2013-02-22 09:15:00,49.3,27.6,29.90,WSW,248,4.7,6.9,43,0.00,,,0.00,WUHU216HW,2013-02-22 16:15:00,
2013-02-22 09:20:00,49.7,28.0,29.90,West,270,7.2,7.2,43,0.00,,,0.00,WUHU216HW,2013-02-22 16:20:00,
2013-02-22 09:25:00,49.9,28.2,29.90,West,270,7.6,7.6,43,0.00,,,0.00,WUHU216HW,2013-02-22 16:25:00,
2013-02-22 09:31:00,50.4,28.1,29.91,WSW,248,8.7,8.7,42,0.00,,,0.00,WUHU216HW,2013-02-22 16:31:00,
2013-02-22 09:37:00,50.2,27.9,29.91,WSW,248,6.7,9.2,42,0.00,,,0.00,WUHU216HW,2013-02-22 16:37:00,
2013-02-22 09:42:00,50.2,27.4,29.91,WSW,248,4.7,9.2,41,0.00,,,0.00,WUHU216HW,2013-02-22 16:42:00,
2013-02-22 09:47:00,50.6,28.3,29.90,WSW,248,7.6,8.7,42,0.00,,,0.00,WUHU216HW,2013-02-22 16:47:00,
2013-02-22 09:52:00,50.4,27.0,29.90,SW,225,4.7,7.6,40,0.00,,,0.00,WUHU216HW,2013-02-22 16:52:00,
2013-02-22 13:34:00,56.3,23.4,29.83,WSW,248,13.2,13.2,28,0.00,,,0.00,WUHU216HW,2013-02-22 20:34:00,
2013-02-22 13:39:00,56.3,22.4,29.83,SSW,203,13.4,13.4,27,0.00,,,0.00,WUHU216HW,2013-02-22 20:39:00,
2013-02-22 13:44:00,56.0,23.0,29.83,WSW,248,11.9,13.4,28,0.00,,,0.00,WUHU216HW,2013-02-22 20:44:00,
2013-02-22 13:49:00,56.2,23.2,29.82,West,270,10.7,12.8,28,0.00,,,0.00,WUHU216HW,2013-02-22 20:49:00,
2013-02-22 13:54:00,56.2,23.2,29.82,NNW,338,8.3,12.8,28,0.00,,,0.00,WUHU216HW,2013-02-22 20:54:00,
2013-02-22 13:59:00,56.3,23.4,29.82,WSW,248,7.6,11.9,28,0.00,,,0.00,WUHU216HW,2013-02-22 20:59:00,
2013-02-22 14:04:00,56.5,23.6,29.82,SW,225,6.9,12.1,28,0.00,,,0.00,WUHU216HW,2013-02-22 21:04:00,
2013-02-22 14:09:00,56.7,23.8,29.81,West,270,6.7,12.1,28,0.00,,,0.00,WUHU216HW,2013-02-22 21:09:00,
2013-02-22 14:14:00,56.9,23.9,29.81,WSW,248,12.1,12.1,28,0.00,,,0.00,WUHU216HW,2013-02-22 21:14:00,
2013-02-22 14:19:00,56.9,23.9,29.81,WSW,248,8.5,12.1,28,0.00,,,0.00,WUHU216HW,2013-02-22 21:19:00,
2013-02-22 14:24:00,56.7,23.8,29.81,SW,225,10.1,10.1,28,0.00,,,0.00,WUHU216HW,2013-02-22 21:24:00,
2013-02-22 14:29:00,56.7,23.8,29.81,WSW,248,8.3,10.1,28,0.00,,,0.00,WUHU216HW,2013-02-22 21:29:00,
2013-02-22 14:34:00,56.7,23.8,29.81,SW,225,12.3,12.3,28,0.00,,,0.00,WUHU216HW,2013-02-22 21:34:00,
2013-02-22 14:39:00,56.9,23.9,29.81,WSW,248,6.3,12.3,28,0.00,,,0.00,WUHU216HW,2013-02-22 21:39:00,
2013-02-22 14:44:00,56.9,23.9,29.82,WSW,248,5.6,14.8,28,0.00,,,0.00,WUHU216HW,2013-02-22 21:44:00,
2013-02-22 14:49:00,56.7,23.8,29.82,WSW,248,6.9,14.8,28,0.00,,,0.00,WUHU216HW,2013-02-22 21:49:00,
2013-02-22 14:54:00,56.7,22.8,29.81,SW,225,7.4,9.2,27,0.00,,,0.00,WUHU216HW,2013-02-22 21:54:00,
2013-02-22 14:59:00,56.9,23.0,29.81,West,270,8.3,10.5,27,0.00,,,0.00,WUHU216HW,2013-02-22 21:59:00,
2013-02-22 15:04:00,56.9,23.0,29.81,SW,225,8.5,13.9,27,0.00,,,0.00,WUHU216HW,2013-02-22 22:04:00,
2013-02-22 15:09:00,56.9,23.0,29.81,WSW,248,5.8,13.9,27,0.00,,,0.00,WUHU216HW,2013-02-22 22:09:00,
2013-02-22 15:14:00,56.9,23.0,29.81,West,270,9.2,11.6,27,0.00,,,0.00,WUHU216HW,2013-02-22 22:14:00,
2013-02-22 15:20:00,56.9,21.1,29.81,WSW,248,6.3,11.4,25,0.00,,,0.00,WUHU216HW,2013-02-22 22:20:00,
2013-02-22 15:25:00,56.9,21.1,29.81,West,270,8.7,11.4,25,0.00,,,0.00,WUHU216HW,2013-02-22 22:25:00,
2013-02-22 15:30:00,57.1,22.2,29.81,WSW,248,9.2,11.4,26,0.00,,,0.00,WUHU216HW,2013-02-22 22:30:00,
2013-02-22 15:35:00,56.9,21.1,29.81,SSW,203,11.0,11.2,25,0.00,,,0.00,WUHU216HW,2013-02-22 22:35:00,
2013-02-22 15:40:00,57.1,23.0,29.81,WSW,248,11.0,14.5,27,0.00,,,0.00,WUHU216HW,2013-02-22 22:40:00,
2013-02-22 15:45:00,57.1,21.2,29.82,WSW,248,10.1,14.5,25,0.00,,,0.00,WUHU216HW,2013-02-22 22:45:00,
2013-02-22 15:50:00,57.1,21.2,29.82,WSW,248,15.7,15.7,25,0.00,,,0.00,WUHU216HW,2013-02-22 22:50:00,
2013-02-22 15:55:00,57.1,21.2,29.82,WSW,248,8.1,15.7,25,0.00,,,0.00,WUHU216HW,2013-02-22 22:55:00,
2013-02-22 16:01:00,56.9,22.0,29.82,WSW,248,9.4,13.6,26,0.00,,,0.00,WUHU216HW,2013-02-22 23:01:00,
2013-02-22 16:06:00,56.9,21.1,29.82,West,270,15.2,15.2,25,0.00,,,0.00,WUHU216HW,2013-02-22 23:06:00,
2013-02-22 16:11:00,57.1,21.2,29.82,West,270,9.8,15.2,25,0.00,,,0.00,WUHU216HW,2013-02-22 23:11:00,
2013-02-22 16:16:00,57.1,21.2,29.82,West,270,8.9,10.7,25,0.00,,,0.00,WUHU216HW,2013-02-22 23:16:00,
2013-02-22 16:21:00,57.1,21.2,29.82,West,270,11.4,11.9,25,0.00,,,0.00,WUHU216HW,2013-02-22 23:21:00,
2013-02-22 16:26:00,56.9,21.1,29.82,West,270,11.9,11.9,25,0.00,,,0.00,WUHU216HW,2013-02-22 23:26:00,
2013-02-22 16:31:00,56.9,22.0,29.82,SW,225,6.5,11.9,26,0.00,,,0.00,WUHU216HW,2013-02-22 23:31:00,
2013-02-22 16:36:00,56.5,22.6,29.82,SW,225,5.4,11.2,27,0.00,,,0.00,WUHU216HW,2013-02-22 23:36:00,
2013-02-22 16:41:00,56.5,22.6,29.82,West,270,11.4,11.4,27,0.00,,,0.00,WUHU216HW,2013-02-22 23:41:00,
2013-02-22 16:46:00,56.5,22.6,29.82,WSW,248,7.6,13.2,27,0.00,,,0.00,WUHU216HW,2013-02-22 23:46:00,
2013-02-22 16:51:00,56.3,22.4,29.82,WSW,248,10.5,13.2,27,0.00,,,0.00,WUHU216HW,2013-02-22 23:51:00,
2013-02-22 16:56:00,56.2,22.3,29.82,WSW,248,7.6,15.2,27,0.00,,,0.00,WUHU216HW,2013-02-22 23:56:00,
2013-02-22 17:01:00,56.2,22.3,29.82,WSW,248,7.4,15.2,27,0.00,,,0.00,WUHU216HW,2013-02-23 00:01:00,
2013-02-22 17:06:00,56.0,22.1,29.82,SW,225,5.6,12.8,27,0.00,,,0.00,WUHU216HW,2013-02-23 00:06:00,
2013-02-22 17:11:00,55.8,22.0,29.82,WSW,248,11.0,11.0,27,0.00,,,0.00,WUHU216HW,2013-02-23 00:11:00,
2013-02-22 17:16:00,55.6,21.9,29.82,WSW,248,8.3,12.5,27,0.00,,,0.00,WUHU216HW,2013-02-23 00:16:00,
2013-02-22 17:21:00,55.4,22.6,29.83,WSW,248,7.4,12.5,28,0.00,,,0.00,WUHU216HW,2013-02-23 00:21:00,
2013-02-22 17:26:00,55.3,22.5,29.83,SW,225,6.9,8.9,28,0.00,,,0.00,WUHU216HW,2013-02-23 00:26:00,
2013-02-22 17:31:00,55.1,22.3,29.83,SW,225,8.3,14.1,28,0.00,,,0.00,WUHU216HW,2013-02-23 00:31:00,
2013-02-22 17:36:00,54.7,22.1,29.82,WSW,248,12.8,15.0,28,0.00,,,0.00,WUHU216HW,2013-02-23 00:36:00,
2013-02-22 17:41:00,54.5,21.9,29.82,West,270,10.1,15.0,28,0.00,,,0.00,WUHU216HW,2013-02-23 00:41:00,
2013-02-22 17:46:00,54.4,21.7,29.83,SSW,203,9.8,13.4,28,0.00,,,0.00,WUHU216HW,2013-02-23 00:46:00,
2013-02-22 17:51:00,54.4,21.7,29.83,West,270,10.3,13.4,28,0.00,,,0.00,WUHU216HW,2013-02-23 00:51:00,
2013-02-22 17:56:00,54.2,21.6,29.83,WSW,248,6.0,12.5,28,0.00,,,0.00,WUHU216HW,2013-02-23 00:56:00,
2013-02-22 18:01:00,54.0,21.4,29.83,WSW,248,7.8,12.5,28,0.00,,,0.00,WUHU216HW,2013-02-23 01:01:00,
2013-02-22 18:06:00,53.8,21.2,29.83,WSW,248,9.4,12.1,28,0.00,,,0.00,WUHU216HW,2013-02-23 01:06:00,
2013-02-22 18:11:00,53.6,22.1,29.83,WSW,248,9.2,12.1,29,0.00,,,0.00,WUHU216HW,2013-02-23 01:11:00,
2013-02-22 18:16:00,53.5,22.0,29.83,SW,225,8.3,11.4,29,0.00,,,0.00,WUHU216HW,2013-02-23 01:16:00,
2013-02-22 18:21:00,53.3,21.8,29.83,WSW,248,7.6,9.6,29,0.00,,,0.00,WUHU216HW,2013-02-23 01:21:00,
2013-02-22 18:26:00,53.3,21.8,29.83,WSW,248,10.3,10.3,29,0.00,,,0.00,WUHU216HW,2013-02-23 01:26:00,
2013-02-22 18:31:00,53.1,21.6,29.83,WSW,248,7.2,10.3,29,0.00,,,0.00,WUHU216HW,2013-02-23 01:31:00,
2013-02-22 18:36:00,53.1,21.6,29.83,West,270,4.7,11.9,29,0.00,,,0.00,WUHU216HW,2013-02-23 01:36:00,
2013-02-22 18:41:00,52.9,22.4,29.83,WSW,248,3.8,11.9,30,0.00,,,0.00,WUHU216HW,2013-02-23 01:41:00,
2013-02-22 18:46:00,52.9,22.4,29.84,WSW,248,4.3,5.4,30,0.00,,,0.00,WUHU216HW,2013-02-23 01:46:00,
2013-02-22 18:51:00,52.7,22.2,29.84,WSW,248,6.9,6.9,30,0.00,,,0.00,WUHU216HW,2013-02-23 01:51:00,
2013-02-22 18:56:00,52.6,22.8,29.84,WSW,248,4.9,6.9,31,0.00,,,0.00,WUHU216HW,2013-02-23 01:56:00,
2013-02-22 19:01:00,52.4,22.6,29.84,WSW,248,4.0,6.9,31,0.00,,,0.00,WUHU216HW,2013-02-23 02:01:00,
2013-02-22 19:06:00,52.2,22.4,29.83,West,270,5.4,6.9,31,0.00,,,0.00,WUHU216HW,2013-02-23 02:06:00,
2013-02-22 19:11:00,52.2,22.4,29.84,West,270,4.0,6.9,31,0.00,,,0.00,WUHU216HW,2013-02-23 02:11:00,
2013-02-22 19:16:00,52.0,22.2,29.84,West,270,3.1,6.9,31,0.00,,,0.00,WUHU216HW,2013-02-23 02:16:00,
2013-02-22 19:21:00,51.7,22.6,29.84,West,270,3.4,5.4,32,0.00,,,0.00,WUHU216HW,2013-02-23 02:21:00,
2013-02-22 19:26:00,51.5,22.5,29.84,West,270,3.8,5.4,32,0.00,,,0.00,WUHU216HW,2013-02-23 02:26:00,
2013-02-22 19:31:00,51.3,23.0,29.84,West,270,5.1,5.1,33,0.00,,,0.00,WUHU216HW,2013-02-23 02:31:00,
2013-02-22 19:36:00,51.1,22.9,29.84,West,270,5.4,5.4,33,0.00,,,0.00,WUHU216HW,2013-02-23 02:36:00,
2013-02-22 19:41:00,51.1,22.9,29.84,West,270,4.3,5.4,33,0.00,,,0.00,WUHU216HW,2013-02-23 02:41:00,
2013-02-22 19:46:00,50.9,22.7,29.84,West,270,6.5,6.9,33,0.00,,,0.00,WUHU216HW,2013-02-23 02:46:00,
2013-02-22 19:51:00,50.8,22.5,29.84,West,270,5.6,6.9,33,0.00,,,0.00,WUHU216HW,2013-02-23 02:51:00,
2013-02-22 19:56:00,50.8,23.2,29.85,WSW,248,6.9,9.2,34,0.00,,,0.00,WUHU216HW,2013-02-23 02:56:00,
2013-02-22 20:01:00,50.6,24.4,29.84,WSW,248,8.5,11.2,36,0.00,,,0.00,WUHU216HW,2013-02-23 03:01:00,
2013-02-22 20:06:00,50.6,25.1,29.84,WSW,248,8.5,14.3,37,0.00,,,0.00,WUHU216HW,2013-02-23 03:06:00,
2013-02-22 20:11:00,50.4,24.9,29.84,West,270,6.5,14.3,37,0.00,,,0.00,WUHU216HW,2013-02-23 03:11:00,
2013-02-22 20:16:00,50.4,24.9,29.85,WSW,248,9.8,13.4,37,0.00,,,0.00,WUHU216HW,2013-02-23 03:16:00,
2013-02-22 20:21:00,50.4,24.9,29.85,WSW,248,7.4,13.4,37,0.00,,,0.00,WUHU216HW,2013-02-23 03:21:00,
2013-02-22 20:26:00,50.4,24.9,29.85,West,270,11.2,12.5,37,0.00,,,0.00,WUHU216HW,2013-02-23 03:26:00,
2013-02-22 20:31:00,50.2,24.0,29.85,West,270,8.5,12.5,36,0.00,,,0.00,WUHU216HW,2013-02-23 03:31:00,
2013-02-22 20:36:00,50.2,24.0,29.85,WSW,248,9.6,11.6,36,0.00,,,0.00,WUHU216HW,2013-02-23 03:36:00,
2013-02-22 20:41:00,50.0,24.0,29.85,West,270,9.2,13.9,36,0.00,,,0.00,WUHU216HW,2013-02-23 03:41:00,
2013-02-22 20:46:00,50.0,24.0,29.85,WNW,293,8.3,13.9,36,0.00,,,0.00,WUHU216HW,2013-02-23 03:46:00,
2013-02-22 20:51:00,50.0,24.0,29.85,WNW,293,11.2,13.9,36,0.00,,,0.00,WUHU216HW,2013-02-23 03:51:00,
2013-02-22 20:56:00,50.0,24.0,29.86,West,270,10.1,13.9,36,0.00,,,0.00,WUHU216HW,2013-02-23 03:56:00,
2013-02-22 21:01:00,50.0,24.0,29.85,West,270,11.2,11.4,36,0.00,,,0.00,WUHU216HW,2013-02-23 04:01:00,
2013-02-22 21:06:00,49.9,23.8,29.85,West,270,7.8,11.6,36,0.00,,,0.00,WUHU216HW,2013-02-23 04:06:00,
2013-02-22 21:11:00,49.9,23.8,29.85,West,270,9.6,13.9,36,0.00,,,0.00,WUHU216HW,2013-02-23 04:11:00,
2013-02-22 21:16:00,49.9,23.8,29.85,West,270,11.2,13.9,36,0.00,,,0.00,WUHU216HW,2013-02-23 04:16:00,
2013-02-22 21:21:00,49.9,23.8,29.86,SW,225,11.0,14.8,36,0.00,,,0.00,WUHU216HW,2013-02-23 04:21:00,
2013-02-22 21:26:00,49.9,23.8,29.85,WSW,248,8.5,14.8,36,0.00,,,0.00,WUHU216HW,2013-02-23 04:26:00,
2013-02-22 21:31:00,49.9,23.8,29.85,West,270,13.6,13.6,36,0.00,,,0.00,WUHU216HW,2013-02-23 04:31:00,
2013-02-22 21:36:00,49.9,23.8,29.85,WSW,248,11.2,13.6,36,0.00,,,0.00,WUHU216HW,2013-02-23 04:36:00,
2013-02-22 21:41:00,49.9,23.8,29.86,WSW,248,9.8,15.4,36,0.00,,,0.00,WUHU216HW,2013-02-23 04:41:00,
2013-02-22 21:46:00,49.7,23.6,29.86,West,270,11.4,15.4,36,0.00,,,0.00,WUHU216HW,2013-02-23 04:46:00,
2013-02-22 21:51:00,49.7,23.6,29.86,West,270,12.1,15.0,36,0.00,,,0.00,WUHU216HW,2013-02-23 04:51:00,
2013-02-22 21:56:00,49.7,23.6,29.86,West,270,7.4,12.5,36,0.00,,,0.00,WUHU216HW,2013-02-23 04:56:00,
2013-02-22 22:00:00,49.7,23.6,29.87,West,270,8.5,12.5,36,0.00,,,0.00,WUHU216HW,2013-02-23 05:00:00,
2013-02-22 22:05:00,49.3,23.9,29.88,WSW,248,7.6,9.8,37,0.00,,,0.00,WUHU216HW,2013-02-23 05:05:00,
2013-02-22 22:10:00,49.1,23.8,29.88,WSW,248,6.9,9.8,37,0.00,,,0.00,WUHU216HW,2013-02-23 05:10:00,
2013-02-22 22:15:00,49.0,23.7,29.89,NW,315,5.6,9.8,37,0.00,,,0.00,WUHU216HW,2013-02-23 05:15:00,
2013-02-22 22:20:00,48.8,24.1,29.89,NW,315,7.4,9.8,38,0.00,,,0.00,WUHU216HW,2013-02-23 05:20:00,
2013-02-22 22:25:00,48.6,24.0,29.89,West,270,9.8,9.8,38,0.00,,,0.00,WUHU216HW,2013-02-23 05:25:00,
2013-02-22 22:30:00,48.6,24.0,29.89,West,270,7.8,9.8,38,0.00,,,0.00,WUHU216HW,2013-02-23 05:30:00,
2013-02-22 22:35:00,48.4,23.9,29.89,West,270,11.0,11.0,38,0.00,,,0.00,WUHU216HW,2013-02-23 05:35:00,
2013-02-22 22:40:00,48.2,23.7,29.89,West,270,7.6,11.0,38,0.00,,,0.00,WUHU216HW,2013-02-23 05:40:00,
2013-02-22 22:45:00,48.2,23.7,29.89,West,270,12.5,12.5,38,0.00,,,0.00,WUHU216HW,2013-02-23 05:45:00,
2013-02-22 22:50:00,48.2,24.4,29.89,West,270,7.8,12.5,39,0.00,,,0.00,WUHU216HW,2013-02-23 05:50:00,
2013-02-22 22:55:00,48.2,24.4,29.89,NW,315,6.0,12.3,39,0.00,,,0.00,WUHU216HW,2013-02-23 05:55:00,
2013-02-22 23:00:00,47.9,24.0,29.89,West,270,11.2,11.2,39,0.00,,,0.00,WUHU216HW,2013-02-23 06:00:00,
2013-02-22 23:05:00,47.9,24.0,29.89,WSW,248,10.3,15.9,39,0.00,,,0.00,WUHU216HW,2013-02-23 06:05:00,
2013-02-22 23:10:00,47.9,24.0,29.89,West,270,10.3,15.9,39,0.00,,,0.00,WUHU216HW,2013-02-23 06:10:00,
2013-02-22 23:15:00,47.9,24.0,29.89,West,270,9.6,15.4,39,0.00,,,0.00,WUHU216HW,2013-02-23 06:15:00,
2013-02-22 23:20:00,47.7,23.9,29.89,West,270,10.1,12.5,39,0.00,,,0.00,WUHU216HW,2013-02-23 06:20:00,
2013-02-22 23:26:00,47.9,24.0,29.89,WNW,293,6.5,15.0,39,0.00,,,0.00,WUHU216HW,2013-02-23 06:26:00,
2013-02-22 23:31:00,47.7,23.9,29.89,WSW,248,7.4,15.0,39,0.00,,,0.00,WUHU216HW,2013-02-23 06:31:00,
2013-02-22 23:36:00,47.7,23.9,29.89,West,270,11.6,13.6,39,0.00,,,0.00,WUHU216HW,2013-02-23 06:36:00,
2013-02-22 23:41:00,47.7,23.9,29.89,WNW,293,11.6,11.9,39,0.00,,,0.00,WUHU216HW,2013-02-23 06:41:00,
2013-02-22 23:46:00,47.7,23.9,29.89,WNW,293,13.9,18.8,39,0.00,,,0.00,WUHU216HW,2013-02-23 06:46:00,
2013-02-22 23:51:00,47.9,24.0,29.90,West,270,12.5,18.8,39,0.00,,,0.00,WUHU216HW,2013-02-23 06:51:00,
2013-02-22 23:56:00,47.7,23.9,29.90,WSW,248,6.9,14.8,39,0.00,,,0.00,WUHU216HW,2013-02-23 06:56:00,